Tracking 35274 objects as of 10-Sep-2026
HD Live streaming from Space Station
objects crossing your sky now

COSMOS 2147

Track COSMOS 2147 now!
10-day predictions
COSMOS 2147 is classified as:


NORAD ID: 21303
Int'l Code: 1991-033E
Launch date: May 16, 1991
Source: Commonwealth of Independent States (former USSR) (CIS)
Launch site: PLESETSK MISSILE AND SPACE COMPLEX (PKMTR)
Your satellite tracking list
Your tracking list is empty




NASA's NSSDC Master Catalog

Two Line Element Set (TLE):
1 21303U 91033E   26252.93965221  .00000006  00000-0 -27519-4 0  9994
2 21303  82.5651 220.7661 0019077 165.4867 249.6181 12.65167707630869
Source of the keplerian elements: AFSPC